Weather observations for the past three days for
Alice, Alice International Airport
Imperial (Metric)
Date Time (cdt) Wind (mph) Vis. (mi.) Weather Sky Cond. Temperature (ºF) Relative Humidity Wind Chill (°F) Heat Index (°F) Pressure Precipitation (in)
Air Dwpt 6 hour altimeter (in) sea level (mb) 1 hr 3 hr 6 hr
Max. Min.
20 06:53 E 14 9.00 Overcast FEW022 BKN035 OVC050 81 77 81 79 88% 88 29.86 1010.9 1.28
20 05:53 E 12 9.00 Overcast FEW019 BKN030 OVC036 81 77 88% 88 29.84 1010.3
20 04:53 E 13 10.00 Overcast SCT025 BKN034 OVC041 81 77 88% 88 29.83 1010.0
20 03:53 E 14 10.00 Thunderstorm BKN024 BKN036 OVC045 80.1 78.1 94% 86 29.82 1009.6 0.11 1.28
20 02:53 E 16 G 25 6.00 Rain Fog/Mist FEW019 BKN031 BKN055 80.1 78.1 94% 86 29.82 1009.5 0.47
20 01:53 E 10 G 23 1.25 Thunderstorm in Vicinity Heavy Rain Fog/Mist OVC007 79 77 94% 83 29.84 1010.1 0.7
20 00:53 E 18 G 25 2.00 Light Rain Fog/Mist OVC007 80.1 78.1 80.1 78.1 94% 86 29.83 1009.8 1.31 2.18
19 23:53 NE 13 G 23 4.00 Heavy Rain Fog/Mist FEW008 BKN028 OVC049 80.1 78.1 94% 86 29.85 1010.4 0.11
19 22:53 NE 14 G 23 5.00 Thunderstorm in Vicinity Light Rain Fog/Mist SCT010 BKN019 OVC055 79 77 94% 83 29.84 1010.3 0.1
19 21:53 NE 14 G 24 8.00 Light Rain BKN008 OVC017 79 77 94% 83 29.81 1009.2 0.07 0.66
19 20:53 NE 14 4.00 Rain Fog/Mist BKN011 BKN019 BKN026 79 77 94% 83 29.8 1009.0 0.05
19 19:53 NE 13 5.00 Light Rain Fog/Mist BKN008 OVC012 78.1 77 97% 81 29.8 1008.7 0.54
19 18:53 NE 17 G 24 1.75 Heavy Rain Fog/Mist SCT009 OVC015 78.1 75.9 79 78.1 93% 81 29.79 1008.5 0.17 1.08
19 17:53 NE 16 G 28 2.00 Light Rain Fog/Mist FEW008 SCT017 OVC033 78.1 75.9 93% 81 29.79 1008.5 0.17
19 16:53 NE 14 G 24 8.00 Light Rain SCT008 BKN012 OVC021 78.1 75.9 93% 81 29.79 1008.5 0.17
19 15:53 NE 18 G 29 3.00 Rain Fog/Mist BKN010 OVC018 78.1 75.9 93% 81 29.8 1008.7 0.1 0.57
19 14:53 NE 18 G 28 8.00 Light Rain BKN010 BKN013 OVC034 79 77 94% 83 29.8 1008.9 0.06
19 13:53 NE 13 G 23 0.50 Heavy Rain Fog BKN010 OVC016 78.1 75.9 93% 81 29.82 1009.5 0.41
19 12:53 NE 12 G 24 0.75 Heavy Rain Fog/Mist FEW005 BKN008 OVC019 78.1 77 79 77 97% 81 29.82 1009.6 0.68 1.3
19 11:53 NE 12 G 22 1.50 Heavy Rain Fog/Mist BKN007 OVC011 78.1 75.9 93% 81 29.82 1009.7 0.36
19 10:53 NE 14 5.00 Light Rain Fog/Mist OVC009 79 77 94% 83 29.81 1009.3 0.06
19 09:53 NE 13 9.00 Light Rain FEW009 BKN017 OVC038 79 77 94% 83 29.8 1009.0 0.05 0.2
19 08:53 NE 15 9.00 Light Rain BKN012 BKN027 OVC070 79 75.9 90% 83 29.8 1008.8 0.05
19 07:53 NE 10 10.00 Overcast SCT007 BKN014 OVC048 78.1 75.9 93% 81 29.78 1008.2 0.1
19 06:53 N 14 G 23 10.00 Mostly Cloudy BKN008 77 75 79 77 94% 78 29.77 1007.7 0.01 0.04
19 05:53 N 15 5.00 Light Rain Fog/Mist BKN008 OVC015 77 75 94% 78 29.76 1007.3
19 04:53 N 10 5.00 Light Rain Fog/Mist BKN009 OVC014 77 75 94% 78 29.75 1007.3 0.01
19 03:53 N 9 3.00 Light Rain Fog/Mist FEW006 BKN015 OVC020 77 75 94% 78 29.75 1007.1 0.02
19 02:53 N 8 10.00 Overcast FEW011 BKN018 OVC044 77 75 94% 78 29.78 1008.0 0.02
19 01:53 NE 9 10.00 Partly Cloudy FEW023 SCT031 78.1 73.9 87% 81 29.78 1008.3
19 00:53 N 7 10.00 A Few Clouds FEW026 79 73.9 90 79 85% 83 29.8 1008.9
18 23:53 E 9 10.00 Light Rain BKN022 OVC031 80.1 75 85% 85 29.81 1009.3
18 22:53 E 12 10.00 Partly Cloudy SCT026 SCT055 82 73 74% 87 29.81 1009.2
18 21:53 E 10 10.00 Overcast SCT024 BKN029 OVC046 82 73 74% 87 29.79 1008.5
18 20:53 E 12 10.00 A Few Clouds FEW025 82.9 73 72% 89 29.77 1008.0
18 19:53 E 15 G 29 10.00 A Few Clouds FEW040 FEW050 84 72 67% 90 29.76 1007.6
18 18:53 E 22 G 35 10.00 A Few Clouds and Breezy FEW049 90 72 96.1 87.1 56% 97 29.75 1007.0
18 17:53 E 18 G 32 10.00 Partly Cloudy FEW038 SCT065 SCT080 88 72 59% 95 29.74 1007.0
18 16:53 E 16 G 28 10.00 Partly Cloudy SCT047 91 71.1 52% 98 29.74 1006.8
18 15:53 E 15 G 26 10.00 Mostly Cloudy BKN070 BKN095 89.1 73 59% 97 29.76 1007.3
18 14:53 SE 18 G 26 10.00 Mostly Cloudy SCT047 SCT055 BKN075 93 72 50% 101 29.75 1007.0
18 13:53 E 13 G 24 10.00 Overcast SCT046 SCT060 OVC080 91.9 71.1 51% 99 29.76 1007.6
18 12:53 E 6 10.00 Overcast FEW045 SCT050 OVC065 90 71.1 93.9 77 54% 96 29.78 1008.1
18 11:53 E 10 G 22 10.00 Overcast SCT046 OVC060 90 70 52% 95 29.77 1007.9
18 10:53 SE 12 G 18 10.00 Mostly Cloudy SCT050 SCT060 BKN075 90 72 56% 97 29.77 1007.8
18 09:53 E 8 10.00 Overcast BKN055 OVC080 86 73.9 67% 94 29.77 1007.9
18 08:53 SE 13 10.00 Mostly Cloudy BKN070 84 73 70% 90 29.77 1008.0
18 07:53 E 6 10.00 Mostly Cloudy FEW034 BKN047 80.1 75 85% 85 29.76 1007.6
18 06:53 NE 3 10.00 Mostly Cloudy BKN032 77 73.9 82 75.9 90% 78 29.74 1006.9
18 05:53 Calm 10.00 Fair CLR 77 73.9 90% 78 29.74 1006.7
18 04:53 E 5 10.00 Partly Cloudy SCT029 78.1 73 85% 81 29.74 1006.8
18 03:53 SE 5 10.00 Overcast FEW047 OVC070 79 75 88% 83 29.75 1006.9
18 02:53 SE 8 8.00 Light Rain SCT023 BKN035 OVC055 81 73.9 79% 86 29.76 1007.3
18 01:53 SE 7 10.00 Mostly Cloudy FEW025 BKN037 BKN044 81 73.9 79% 86 29.78 1007.9
18 00:53 SE 10 10.00 Partly Cloudy FEW027 SCT031 82 73.9 90 82 77% 88 29.79 1008.3
17 23:53 SE 10 10.00 Mostly Cloudy SCT024 BKN033 82 73.9 77% 88 29.79 1008.5
17 22:53 SE 13 10.00 Fair CLR 82 73.9 77% 88 29.79 1008.4
17 21:53 SE 18 G 25 10.00 Fair CLR 82.9 75 77% 90 29.77 1007.9
17 20:53 SE 17 G 28 10.00 Fair CLR 84.9 73.9 70% 92 29.76 1007.4
17 19:53 SE 14 G 32 10.00 Fair CLR 87.1 73 63% 95 29.75 1007.0
17 18:53 SE 22 G 32 10.00 Fair and Breezy CLR 90 73 99 90 58% 98 29.72 1006.2
17 17:53 SE 22 G 35 10.00 A Few Clouds and Breezy FEW036 91.9 73.9 56% 102 29.71 1005.9
17 16:53 SE 20 G 35 10.00 A Few Clouds FEW045 95 73.9 51% 106 29.72 1006.0
17 15:53 SE 21 G 29 10.00 A Few Clouds and Breezy FEW080 97 72 45% 106 29.72 1006.1
17 14:53 SE 15 G 25 10.00 Mostly Cloudy SCT055 SCT080 BKN100 95 72 47% 103 29.73 1006.4
17 13:53 SE 16 G 23 10.00 A Few Clouds FEW049 98.1 75 48% 111 29.74 1006.8
17 12:53 SE 10 G 22 10.00 Mostly Cloudy BKN048 93.9 73 97 78.1 51% 103 29.76 1007.2
17 11:53 E 13 G 22 10.00 A Few Clouds FEW060 95 72 47% 103 29.77 1007.6
17 10:53 S 12 10.00 Mostly Cloudy BKN038 91 73 56% 100 29.77 1007.9
17 09:53 S 12 10.00 Partly Cloudy SCT025 SCT044 88 73.9 63% 97 29.78 1008.0
17 08:53 S 13 10.00 A Few Clouds FEW021 86 75.9 72% 96 29.78 1008.0
Date Time (cdt) Wind (mph) Vis. (mi.) Weather Sky Cond. Air Dwpt Max. Min. Relative Humidity Wind Chill (°F) Heat Index (°F) altimeter (in) sea level (mb) 1 hr 3 hr 6 hr
6 hour
Temperature (ºF) Pressure Precipitation (in)